When you browse on this site, cookies collect data to enhance your experience and personalize the content and advertising you see.
Visit our Privacy Policy to learn more. By continuing to use the site, you agree to this use of cookies and data.
  • In United Kingdom
  • List of Countries
  • For 7 days
  • Water Temperature
  • Satellite Maps
  • Weather Map
  • Weather Widgets
  • user-avatar
    Login

    Hourly Weather Kananga

    Today, 18 February, Monday

    Time Temperature Precipitation Wind Pressure Humidity
    00:00 +25°C° 0 mm 1 mps 705 mmHg 21%
    01:00 +24°C° 0 mm 1 mps 704 mmHg 21%
    02:00 +24°C° 0 mm 1 mps 704 mmHg 22%
    03:00 +23°C° 0 mm 1 mps 704 mmHg 22%
    04:00 +23°C° 0 mm 1 mps 704 mmHg 23%
    05:00 +24°C° 0 mm 1 mps 704 mmHg 22%
    06:00 +25°C° 0 mm 1 mps 705 mmHg 21%
    07:00 +26°C° 0 mm 1 mps 705 mmHg 19%
    08:00 +30°C° 0 mm 1 mps 706 mmHg 16%
    09:00 +35°C° 0 mm 1 mps 706 mmHg 13%
    10:00 +40°C° 0 mm 2 mps 707 mmHg 9%
    11:00 +42°C° 0 mm 2 mps 706 mmHg 9%
    12:00 +43°C° 0 mm 2 mps 705 mmHg 9%
    13:00 +45°C° 0 mm 2 mps 704 mmHg 9%
    14:00 +44°C° 0 mm 3 mps 703 mmHg 9%
    15:00 +44°C° 0 mm 3 mps 703 mmHg 10%
    16:00 +43°C° 0 mm 3 mps 702 mmHg 10%
    17:00 +39°C° 0 mm 2 mps 702 mmHg 12%
    18:00 +36°C° 0 mm 2 mps 702 mmHg 15%
    19:00 +31°C° 0 mm 2 mps 701 mmHg 17%
    20:00 +31°C° 0 mm 1 mps 702 mmHg 18%
    21:00 +30°C° 0 mm 1 mps 702 mmHg 19%
    22:00 +29°C° 0 mm 1 mps 703 mmHg 20%
    23:00 +28°C° 0 mm 2 mps 703 mmHg 21%

    Tomorrow, 19 February, Tuesday

    Time Temperature Precipitation Wind Pressure Humidity
    00:00 +28°C° 0 mm 2 mps 703 mmHg 21%
    01:00 +27°C° 0 mm 2 mps 703 mmHg 22%
    02:00 +26°C° 0 mm 2 mps 702 mmHg 25%
    03:00 +24°C° 0 mm 1 mps 702 mmHg 28%
    04:00 +22°C° 0 mm 1 mps 702 mmHg 31%
    05:00 +22°C° 0 mm 0 mps 703 mmHg 29%
    06:00 +23°C° 0 mm 0 mps 703 mmHg 27%
    07:00 +24°C° 0 mm 0 mps 704 mmHg 25%
    08:00 +30°C° 0 mm 1 mps 705 mmHg 19%
    09:00 +34°C° 0 mm 1 mps 705 mmHg 14%
    10:00 +39°C° 0 mm 2 mps 706 mmHg 9%
    11:00 +42°C° 0 mm 2 mps 705 mmHg 8%
    12:00 +45°C° 0 mm 1 mps 705 mmHg 7%
    13:00 +48°C° 0 mm 1 mps 704 mmHg 6%
    14:00 +47°C° 0 mm 1 mps 703 mmHg 6%
    15:00 +46°C° 0 mm 1 mps 702 mmHg 6%
    16:00 +44°C° 0 mm 1 mps 701 mmHg 6%
    17:00 +40°C° 0 mm 1 mps 701 mmHg 9%
    18:00 +32°C° 0 mm 0 mps 701 mmHg 11%
    19:00 +28°C° 0 mm 0 mps 701 mmHg 14%
    20:00 +27°C° 0 mm 0 mps 701 mmHg 15%
    21:00 +26°C° 0 mm 0 mps 702 mmHg 17%
    22:00 +25°C° 0 mm 0 mps 702 mmHg 18%
    23:00 +26°C° 0 mm 1 mps 702 mmHg 19%

    Day after tomorrow, 20 February, Wednesday

    Time Temperature Precipitation Wind Pressure Humidity
    00:00 +26°C° 0 mm 1 mps 702 mmHg 20%
    01:00 +25°C° 0 mm 1 mps 702 mmHg 20%
    02:00 +24°C° 0 mm 1 mps 702 mmHg 21%
    03:00 +24°C° 0 mm 1 mps 702 mmHg 21%
    04:00 +23°C° 0 mm 1 mps 702 mmHg 21%
    05:00 +24°C° 0 mm 1 mps 703 mmHg 19%
    06:00 +25°C° 0 mm 1 mps 704 mmHg 18%
    07:00 +26°C° 0 mm 1 mps 704 mmHg 16%
    08:00 +30°C° 0 mm 1 mps 705 mmHg 13%
    09:00 +35°C° 0 mm 2 mps 706 mmHg 10%
    10:00 +38°C° 0 mm 3 mps 706 mmHg 6%
    11:00 +40°C° 0 mm 2 mps 705 mmHg 6%
    12:00 +42°C° 0 mm 2 mps 704 mmHg 6%
    13:00 +45°C° 0 mm 2 mps 703 mmHg 5%
    14:00 +45°C° 0 mm 2 mps 703 mmHg 6%
    15:00 +43°C° 0 mm 2 mps 702 mmHg 6%
    16:00 +43°C° 0 mm 2 mps 701 mmHg 6%
    17:00 +39°C° 0 mm 1 mps 702 mmHg 8%
    18:00 +35°C° 0 mm 1 mps 702 mmHg 10%
    19:00 +31°C° 0 mm 1 mps 702 mmHg 12%
    20:00 +30°C° 0 mm 1 mps 702 mmHg 13%
    21:00 +29°C° 0 mm 1 mps 703 mmHg 14%
    22:00 +26°C° 0 mm 0 mps 703 mmHg 15%
    23:00 +27°C° 0 mm 1 mps 703 mmHg 16%

    21 February, Thursday

    Time Temperature Precipitation Wind Pressure Humidity
    00:00 +26°C° 0 mm 1 mps 703 mmHg 17%
    01:00 +25°C° 0 mm 1 mps 702 mmHg 19%
    02:00 +24°C° 0 mm 1 mps 702 mmHg 20%
    03:00 +24°C° 0 mm 1 mps 703 mmHg 22%
    04:00 +23°C° 0 mm 1 mps 703 mmHg 23%
    05:00 +25°C° 0 mm 1 mps 704 mmHg 21%
    06:00 +26°C° 0 mm 1 mps 705 mmHg 19%
    07:00 +28°C° 0 mm 1 mps 706 mmHg 17%
    08:00 +32°C° 0 mm 1 mps 706 mmHg 13%
    09:00 +36°C° 0 mm 2 mps 707 mmHg 9%
    10:00 +40°C° 0 mm 2 mps 707 mmHg 6%
    11:00 +41°C° 0 mm 2 mps 706 mmHg 6%
    12:00 +42°C° 0 mm 2 mps 705 mmHg 6%
    13:00 +45°C° 0 mm 2 mps 704 mmHg 6%
    14:00 +44°C° 0 mm 3 mps 703 mmHg 6%
    15:00 +44°C° 0 mm 3 mps 703 mmHg 7%
    16:00 +43°C° 0 mm 3 mps 702 mmHg 7%
    17:00 +39°C° 0 mm 3 mps 703 mmHg 9%
    18:00 +35°C° 0 mm 2 mps 703 mmHg 11%
    19:00 +31°C° 0 mm 2 mps 703 mmHg 14%
    20:00 +30°C° 0 mm 2 mps 703 mmHg 15%
    21:00 +29°C° 0 mm 2 mps 704 mmHg 17%
    22:00 +28°C° 0 mm 1 mps 704 mmHg 19%
    23:00 +26°C° 0 mm 1 mps 703 mmHg 25%

    22 February, Friday

    Time Temperature Precipitation Wind Pressure Humidity
    00:00 +25°C° 0 mm 1 mps 703 mmHg 31%
    01:00 +22°C° 0 mm 0 mps 702 mmHg 37%
    02:00 +22°C° 0 mm 0 mps 703 mmHg 40%
    03:00 +21°C° 0 mm 0 mps 703 mmHg 44%
    04:00 +21°C° 0 mm 0 mps 703 mmHg 48%
    05:00 +23°C° 0 mm 0 mps 704 mmHg 46%
    06:00 +24°C° 0 mm 0 mps 705 mmHg 44%
    07:00 +26°C° 0 mm 0 mps 706 mmHg 42%
    08:00 +32°C° 0 mm 1 mps 707 mmHg 34%
    09:00 +36°C° 0 mm 1 mps 707 mmHg 26%
    10:00 +41°C° 0 mm 1 mps 708 mmHg 18%
    11:00 +42°C° 0 mm 1 mps 707 mmHg 16%
    12:00 +42°C° 0 mm 2 mps 705 mmHg 14%
    13:00 +43°C° 0 mm 2 mps 704 mmHg 12%
    14:00 +42°C° 0 mm 2 mps 704 mmHg 12%
    15:00 +41°C° 0 mm 1 mps 703 mmHg 12%
    16:00 +40°C° 0 mm 1 mps 703 mmHg 12%
    17:00 +37°C° 0 mm 2 mps 703 mmHg 12%
    18:00 +34°C° 0 mm 2 mps 703 mmHg 12%
    19:00 +30°C° 0 mm 2 mps 703 mmHg 12%
    20:00 +29°C° 0 mm 2 mps 703 mmHg 13%
    21:00 +27°C° 0 mm 1 mps 703 mmHg 13%
    22:00 +26°C° 0 mm 1 mps 703 mmHg 14%
    23:00 +26°C° 0 mm 1 mps 703 mmHg 16%

    23 February, Saturday

    Time Temperature Precipitation Wind Pressure Humidity
    00:00 +25°C° 0 mm 1 mps 703 mmHg 18%
    01:00 +25°C° 0 mm 1 mps 703 mmHg 20%
    02:00 +24°C° 0 mm 1 mps 703 mmHg 33%
    03:00 +24°C° 0 mm 1 mps 703 mmHg 46%
    04:00 +23°C° 0 mm 1 mps 703 mmHg 59%
    05:00 +24°C° 0 mm 1 mps 704 mmHg 62%
    06:00 +24°C° 0 mm 1 mps 705 mmHg 65%
    07:00 +25°C° 0 mm 2 mps 706 mmHg 68%
    08:00 +28°C° 0 mm 2 mps 706 mmHg 59%
    09:00 +32°C° 0 mm 2 mps 706 mmHg 49%
    10:00 +35°C° 0 mm 1 mps 707 mmHg 40%
    11:00 +39°C° 0 mm 1 mps 706 mmHg 32%
    12:00 +42°C° 0 mm 1 mps 705 mmHg 24%
    13:00 +43°C° 0 mm 0 mps 705 mmHg 16%
    14:00 +43°C° 0 mm 1 mps 704 mmHg 19%
    15:00 +40°C° 0 mm 1 mps 703 mmHg 22%
    16:00 +36°C° 0 mm 1 mps 702 mmHg 25%
    17:00 +34°C° 0 mm 1 mps 702 mmHg 28%
    18:00 +34°C° 0 mm 2 mps 703 mmHg 30%
    19:00 +32°C° 0 mm 2 mps 703 mmHg 33%
    20:00 +31°C° 0 mm 2 mps 703 mmHg 37%
    21:00 +29°C° 0 mm 2 mps 703 mmHg 42%
    22:00 +28°C° 0 mm 1 mps 703 mmHg 46%
    23:00 +27°C° 0 mm 1 mps 702 mmHg 49%
    Show more